Home   Weather   Fresno   Past weeks
Flag for USA

Past Weather in Fresno, California, USA — Yesterday and Last 2 Weeks

Now
87 °F

Sunny.


Feels Like: 85 °F
Forecast: 100 / 70 °F
Wind: 7 mph from Northwest

Location: Fresno Air Terminal

Current Time: Jul 15, 2019 at 11:53:28 am

Latest Report: Jul 15, 2019 at 10:53 am


Visibility: 9 mi

Pressure: 29.96 "Hg

Humidity: 29%

Dew Point: 51 °F

Location of FresnoLocation

Past Weather in Fresno — Graph

°F

Fresno Temperature Yesterday

Maximum temperature yesterday: 104 °F (at 4:53 pm)
Minimum temperature yesterday: 73 °F (at 5:53 am)
Average temperature yesterday: 88 °F

High & Low Weather Summary for the Past Weeks

 TemperatureHumidityPressure
High104 °F (Jul 14, 4:53 pm)70% (Jul 10, 5:53 am)30.04 "Hg (Jul 10, 5:53 am)
Low62 °F (Jul 3, 5:53 am)9% (Jul 1, 3:53 pm)29.75 "Hg (Jul 13, 6:53 pm)
Average82 °F36%29.90 "Hg
* Reported Jun 30 9:53 am — Jul 15 9:53 am, Fresno. Weather by CustomWeather, © 2019

Note: Actual official high and low records may vary slightly from our data, if they occured in-between our weather recording intervals... More about our weather records

Advertising

Fresno Weather History for the Previous 24 Hours

Scroll right to see more
 ConditionsComfort  
Time TempWeatherWind HumidityBarometerVisibility
9:53 am
Mon, Jul 15
84 °FSunny.5 mph31%29.96 "Hg10 mi
8:53 am80 °FSunny.7 mph35%29.96 "Hg8 mi
7:53 am76 °FSunny.No wind40%29.96 "Hg10 mi
6:53 am72 °FSunny.No wind49%29.94 "Hg8 mi
5:53 am73 °FSunny.7 mph48%29.93 "Hg10 mi
4:53 am72 °FClear.5 mph49%29.92 "Hg10 mi
3:53 am74 °FClear.8 mph48%29.91 "Hg10 mi
2:53 am75 °FClear.9 mph47%29.91 "Hg10 mi
1:53 am77 °FClear.7 mph42%29.93 "Hg10 mi
12:53 am79 °FClear.15 mph41%29.93 "Hg10 mi
11:53 pm
Sun, Jul 14
82 °FClear.14 mph37%29.92 "Hg10 mi
10:53 pm84 °FClear.15 mph35%29.91 "Hg10 mi
9:53 pm87 °FClear.14 mph30%29.90 "Hg10 mi
8:53 pm91 °FClear.17 mph24%29.88 "Hg10 mi
7:53 pm96 °FPassing clouds.13 mph18%29.87 "Hg10 mi
6:53 pm100 °FPassing clouds.14 mph16%29.86 "Hg10 mi
5:53 pm103 °FPassing clouds.15 mph12%29.86 "Hg10 mi
4:53 pm104 °FPassing clouds.16 mph13%29.87 "Hg10 mi
3:53 pm103 °FPassing clouds.16 mph15%29.88 "Hg10 mi
2:53 pm103 °FPassing clouds.10 mph16%29.89 "Hg10 mi
1:53 pm101 °FPassing clouds.8 mph16%29.91 "Hg10 mi
12:53 pm97 °FPassing clouds.7 mph24%29.92 "Hg10 mi
11:53 am94 °FPassing clouds.5 mph28%29.93 "Hg10 mi
Weather by CustomWeather, © 2019

See weather overview